Weather History for EGPH - December, 2011

Change the Weather History Date:

Monday, December 26, 2011

  Actual Average Record
Temperature  
Mean Temperature 52 °F -  
Max Temperature 55 °F 43 °F 55 °F (2011)
Min Temperature 48 °F 33 °F 19 °F (2000)
Degree Days  
Heating Degree Days 14    
Growing Degree Days 2 (Base 50)    
Moisture  
Dew Point 49 °F    
Average Humidity 83    
Maximum Humidity 94    
Minimum Humidity 77    
Precipitation  
Precipitation 0.00 in 0.07 in - ()
Sea Level Pressure  
Sea Level Pressure 30.00 in    
Wind  
Wind Speed 25 mph ()    
Max Wind Speed 37 mph    
Max Gust Speed 51 mph    
Visibility 6.0 miles    
Events Rain    
Averages and records for this station are not official NWS values.
T = Trace of Precipitation, MM = Missing Value Source: Averaged Metar Reports

Daily Weather History Graph

Daily Weather History Graph

Search for Another Location

Airport or City:

Trip Planner

Search our weather history database for the weather conditions in past years. The results will help you decide how hot, cold, wet, or windy it might be!

Date:

Astronomy

Dec. 26, 2011 Rise Set
Actual Time 8:44 AM GMT 3:43 PM GMT
Civil Twilight 7:57 AM GMT 4:30 PM GMT
Nautical Twilight 7:08 AM GMT 5:19 PM GMT
Astronomical Twilight 6:22 AM GMT 6:05 PM GMT
Moon 9:36 AM GMT (12/26) 6:17 PM GMT (12/26)
Length of Visible Light 8h 33m
Length of Day
6h 58m
Waxing Crescent, 4% of the Moon is Illuminated
Dec 26
Waxing Crescent
Jan 1
First Quarter
Jan 9
Full
Jan 16
Last Quarter
Jan 23
New

Hourly Weather History & Observations

Time (GMT) Temp. Dew Point Humidity Pressure Visibility Wind Dir Wind Speed Gust Speed Precip Events Conditions
12:20 AM 55.4 °F 51.8 °F 88% 29.98 in 6.2 mi WSW 29.9 mph 41.4 mph N/A   Overcast
12:50 AM 55.4 °F 51.8 °F 88% 29.98 in 6.2 mi WSW 31.1 mph 44.9 mph N/A   Overcast
1:20 AM 55.4 °F 51.8 °F 88% 29.98 in 6.2 mi WSW 26.5 mph - N/A   Light Drizzle
1:50 AM 55.4 °F 51.8 °F 88% 29.98 in 6.2 mi WSW 25.3 mph 40.3 mph N/A   Light Drizzle
2:20 AM 55.4 °F 51.8 °F 88% 29.98 in 5.0 mi SW 20.7 mph - N/A   Light Drizzle
2:50 AM 55.4 °F 51.8 °F 88% 29.98 in 6.2 mi SW 24.2 mph - N/A   Overcast
3:20 AM 55.4 °F 51.8 °F 88% 29.98 in 6.2 mi SW 25.3 mph 39.1 mph N/A   Overcast
3:50 AM 55.4 °F 50.0 °F 82% 29.98 in 6.2 mi SW 25.3 mph 36.8 mph N/A   Overcast
4:20 AM 55.4 °F 50.0 °F 82% 29.98 in 6.2 mi SW 23.0 mph 34.5 mph N/A   Overcast
4:50 AM 53.6 °F 50.0 °F 88% 29.98 in 6.2 mi SW 24.2 mph 36.8 mph N/A   Overcast
5:20 AM 53.6 °F 50.0 °F 88% 29.98 in 6.2 mi SW 25.3 mph - N/A Rain Light Rain
5:50 AM 53.6 °F 50.0 °F 88% 29.98 in 6.2 mi SW 24.2 mph - N/A   Overcast
6:20 AM 55.4 °F 50.0 °F 82% 29.98 in 6.2 mi SW 27.6 mph - N/A   Overcast
6:50 AM 55.4 °F 50.0 °F 82% 29.98 in 6.2 mi SW 25.3 mph 38.0 mph N/A   Mostly Cloudy
7:20 AM 55.4 °F 50.0 °F 82% 29.98 in 6.2 mi SW 28.8 mph 41.4 mph N/A   Mostly Cloudy
7:50 AM 55.4 °F 50.0 °F 82% 29.98 in 6.2 mi SW 29.9 mph 43.7 mph N/A   Mostly Cloudy
8:20 AM 55.4 °F 50.0 °F 82% 30.01 in 6.2 mi SW 26.5 mph 39.1 mph N/A   Mostly Cloudy
8:50 AM 55.4 °F 50.0 °F 82% 29.98 in 6.2 mi SW 28.8 mph - N/A   Mostly Cloudy
9:20 AM 55.4 °F 48.2 °F 77% 30.01 in 6.2 mi SW 29.9 mph - N/A   Mostly Cloudy
9:50 AM 55.4 °F 48.2 °F 77% 30.01 in 6.2 mi SW 26.5 mph 38.0 mph N/A   Mostly Cloudy
10:20 AM 55.4 °F 48.2 °F 77% 30.01 in 6.2 mi SW 24.2 mph - N/A   Mostly Cloudy
10:50 AM 55.4 °F 48.2 °F 77% 30.01 in 6.2 mi SW 25.3 mph - N/A   Mostly Cloudy
11:20 AM 55.4 °F 48.2 °F 77% 30.01 in 6.2 mi SW 33.4 mph - N/A   Mostly Cloudy
11:50 AM 55.4 °F 48.2 °F 77% 30.01 in 6.2 mi SW 29.9 mph 43.7 mph N/A   Mostly Cloudy
12:20 PM 55.4 °F 48.2 °F 77% 30.01 in 6.2 mi SW 31.1 mph 43.7 mph N/A   Mostly Cloudy
12:50 PM 55.4 °F 48.2 °F 77% 30.01 in 6.2 mi SW 32.2 mph - N/A Rain Light Rain Showers
1:20 PM 55.4 °F 48.2 °F 77% 29.98 in 6.2 mi SW 29.9 mph 42.6 mph N/A   Mostly Cloudy
1:50 PM 55.4 °F 48.2 °F 77% 29.98 in 6.2 mi SW 33.4 mph - N/A Rain Light Rain
2:20 PM 53.6 °F 50.0 °F 88% 29.98 in 6.2 mi SW 32.2 mph - N/A Rain Light Rain
2:50 PM 55.4 °F 48.2 °F 77% 29.95 in 6.2 mi SW 31.1 mph 44.9 mph N/A   Mostly Cloudy
3:20 PM 55.4 °F 48.2 °F 77% 29.95 in 6.2 mi SW 32.2 mph - N/A   Mostly Cloudy
3:50 PM 55.4 °F 48.2 °F 77% 29.95 in 6.2 mi SW 32.2 mph 46.0 mph N/A   Mostly Cloudy
4:20 PM 55.4 °F 48.2 °F 77% 29.95 in 6.2 mi SW 29.9 mph - N/A   Mostly Cloudy
4:50 PM 55.4 °F 48.2 °F 77% 29.95 in 6.2 mi SW 31.1 mph 43.7 mph N/A   Mostly Cloudy
5:20 PM 55.4 °F 48.2 °F 77% 29.95 in 6.2 mi SW 34.5 mph 50.6 mph N/A   Mostly Cloudy
5:50 PM 55.4 °F 48.2 °F 77% 29.95 in 6.2 mi WSW 36.8 mph 50.6 mph N/A   Mostly Cloudy
6:20 PM 55.4 °F 48.2 °F 77% 29.98 in 6.2 mi SW 33.4 mph 48.3 mph N/A   Mostly Cloudy
6:50 PM 53.6 °F 48.2 °F 82% 29.98 in 5.6 mi WSW 33.4 mph 46.0 mph N/A Rain Light Rain
7:20 PM 53.6 °F 50.0 °F 88% 30.01 in 3.1 mi SW 31.1 mph - N/A Rain Light Rain
7:50 PM 53.6 °F 50.0 °F 88% 30.01 in 5.0 mi SW 28.8 mph - N/A Rain Light Rain
8:20 PM 53.6 °F 50.0 °F 88% 30.04 in 6.2 mi SW 24.2 mph - N/A Rain Light Rain
8:50 PM 53.6 °F 50.0 °F 88% 30.04 in 6.2 mi SW 24.2 mph - N/A Rain Light Rain
9:20 PM 53.6 °F 50.0 °F 88% 30.04 in 6.2 mi SW 24.2 mph - N/A Rain Light Rain
9:50 PM 53.6 °F 50.0 °F 88% 30.06 in 6.2 mi WSW 24.2 mph - N/A Rain Light Rain
10:20 PM 51.8 °F 50.0 °F 94% 30.06 in 5.6 mi WSW 19.6 mph - N/A Rain Light Rain
10:50 PM 51.8 °F 48.2 °F 88% 30.09 in 5.0 mi West 16.1 mph - N/A Rain Light Rain
11:20 PM 48.2 °F 44.6 °F 87% 30.12 in 6.2 mi West 18.4 mph - N/A Rain Light Rain
11:50 PM 48.2 °F 44.6 °F 87% 30.15 in 6.2 mi West 16.1 mph - N/A Rain Light Rain